Regional Weather Roundup
Issued by NWS

Home | Current Version | Previous Version | Text Only | Print | Product List | Glossary On
Versions: 1 2 3 4 5 6 7 8 9 10 11 12 13 14 15 16 17 18 19 20 21 22 23 24 25 26 27 28 29 30 31 32 33 34 35 36 37 38 39 40 41 42 43 44 45 46 47 48 49 50
980
ASUS43 KBIS 221410
RWRND

NORTH DAKOTA REGIONAL WEATHER ROUNDUP
NATIONAL WEATHER SERVICE BISMARCK ND
900 AM CDT THU JUN 22 2017

NOTE: "FAIR" INDICATES FEW OR NO CLOUDS BELOW 12,000 FEET WITH NO
SIGNIFICANT WEATHER AND/OR OBSTRUCTIONS TO VISIBILITY.


NDZ001>003-009>011-017-221500-
NORTHWEST NORTH DAKOTA

CITY           SKY/WX    TMP DP  RH WIND       PRES   REMARKS
WILLISTON      SUNNY     60  44  55 W18       29.85F
MINOT          SUNNY     64  44  48 W21       29.76R
MINOT AFB      SUNNY     62  45  53 W20G29    29.75R
$$

NDZ018>021-031>035-040>046-221500-
SOUTHWEST NORTH DAKOTA

CITY           SKY/WX    TMP DP  RH WIND       PRES   REMARKS
BISMARCK       CLOUDY    63  47  55 SW6       29.83F
DICKINSON      PTSUNNY   60  42  51 NW21G28   29.87R
GARRISON         N/A     62  46  55 NW18G24   29.80R
HETTINGER ARPT CLOUDY    62  41  46 N7        29.90S
$$

NDZ004>008-012>016-024-026-027-054-221500-
NORTHEAST NORTH DAKOTA

CITY           SKY/WX    TMP DP  RH WIND       PRES   REMARKS
GRAND FORKS    CLOUDY    62  50  64 W8        29.72R
GRND FRKS AFB  CLOUDY    60  49  66 W7        29.72S
DEVILS LAKE    CLOUDY    62  49  62 W13       29.74S
$$

NDZ022-023-025-028>030-036>039-047>053-221500-
SOUTHEAST NORTH DAKOTA

CITY           SKY/WX    TMP DP  RH WIND       PRES   REMARKS
FARGO          CLOUDY    67  51  56 NW6       29.74R
JAMESTOWN      CLOUDY    64  49  57 NW3       29.79S
$$





USA.gov is the U.S. government's official web portal to all federal, state and local government web resources and services.